Longview, TX

2:27 AM CST on January 20, 2017 (GMT -0600)
Gregg County

Weather History for KGGG - November, 2013

Change the Weather History Date:

Thursday, November 7, 2013

  Actual Average Record
Temperature  
Mean Temperature 50 °F 59 °F  
Max Temperature 62 °F 71 °F 89 °F (1927)
Min Temperature 37 °F 48 °F 22 °F (1959)
Degree Days  
Heating Degree Days 15 7  
Month to date heating degree days 52 42  
Since 1 July heating degree days 101 131  
Cooling Degree Days 0 1  
Month to date cooling degree days 2 10  
Year to date cooling degree days 2714 2405  
Moisture  
Dew Point 39 °F    
Average Humidity 66    
Maximum Humidity 93    
Minimum Humidity 39    
Precipitation  
Precipitation 0.00 in 0.14 in 5.10 in (1938)
Month to date precipitation 0.79 0.96  
Year to date precipitation 32.97 39.53  
Snow  
Snow 0.00 in - - ()
Month to date snowfall 0.0  
Since 1 July snowfall 0.0  
Since 1 September snowfall 0.0  
Snow Depth 0.00 in    
Sea Level Pressure  
Sea Level Pressure 30.41 in    
Wind  
Wind Speed 4 mph (North)    
Max Wind Speed 10 mph    
Max Gust Speed 39 mph    
Visibility 10 miles    
Events      
T = Trace of Precipitation, MM = Missing Value Source: NWS Daily Summary

Daily Weather History Graph

Daily Weather History Graph

Search for Another Location

Airport or City:

Trip Planner

Search our weather history database for the weather conditions in past years. The results will help you decide how hot, cold, wet, or windy it might be!

Date:

Astronomy

Nov. 07, 2013 Rise Set
Actual Time 6:41 AM CST 5:23 PM CST
Civil Twilight 6:15 AM CST 5:48 PM CST
Nautical Twilight 5:46 AM CST 6:18 PM CST
Astronomical Twilight 5:17 AM CST 6:47 PM CST
Moon 10:47 AM CST (11/7) 9:37 PM CST (11/7)
Length of Visible Light 11h 33m
Length of Day
10h 41m
Waxing Crescent, 23% of the Moon is Illuminated
Nov 7
Waxing Crescent
Nov 9
First Quarter
Nov 17
Full
Nov 25
Last Quarter
Dec 2
New

Hourly Weather History & Observations

Time (CST) Temp. Windchill Dew Point Humidity Pressure Visibility Wind Dir Wind Speed Gust Speed Precip Events Conditions
12:53 AM 44.1 °F 39.5 °F 37.9 °F 79% 30.33 in 10.0 mi North 8.1 mph - N/A   Clear
1:53 AM 42.1 °F 37.7 °F 37.9 °F 85% 30.35 in 10.0 mi NNW 6.9 mph - N/A   Clear
2:53 AM 41.0 °F - 37.0 °F 86% 30.36 in 10.0 mi Calm Calm - N/A   Clear
3:53 AM 39.9 °F 37.8 °F 37.0 °F 89% 30.36 in 10.0 mi North 3.5 mph - N/A   Clear
4:53 AM 39.9 °F 36.7 °F 36.0 °F 86% 30.39 in 10.0 mi North 4.6 mph - N/A   Clear
5:53 AM 39.0 °F 36.8 °F 36.0 °F 89% 30.41 in 10.0 mi NNW 3.5 mph - N/A   Clear
6:53 AM 37.9 °F - 36.0 °F 93% 30.43 in 10.0 mi Calm Calm - N/A   Clear
7:53 AM 43.0 °F - 39.0 °F 86% 30.47 in 10.0 mi Calm Calm - N/A   Clear
8:53 AM 48.0 °F - 39.0 °F 71% 30.48 in 10.0 mi NE 5.8 mph - N/A   Clear
9:53 AM 50.0 °F - 37.9 °F 63% 30.48 in 10.0 mi NE 8.1 mph - N/A   Clear
10:53 AM 53.1 °F - 39.0 °F 59% 30.48 in 10.0 mi Variable 4.6 mph - N/A   Clear
11:53 AM 57.0 °F - 37.0 °F 47% 30.45 in 10.0 mi North 10.4 mph - N/A   Clear
12:53 PM 59.0 °F - 37.9 °F 46% 30.43 in 10.0 mi NNW 10.4 mph - N/A   Clear
1:53 PM 62.1 °F - 37.9 °F 41% 30.40 in 10.0 mi NNW 8.1 mph - N/A   Clear
2:53 PM 62.1 °F - 37.0 °F 39% 30.39 in 10.0 mi North 6.9 mph - N/A   Clear
3:53 PM 62.1 °F - 37.9 °F 41% 30.39 in 10.0 mi NE 5.8 mph - N/A   Clear
4:53 PM 59.0 °F - 37.9 °F 46% 30.39 in 10.0 mi North 4.6 mph - N/A   Clear
5:53 PM 54.0 °F - 39.0 °F 57% 30.40 in 10.0 mi North 3.5 mph - N/A   Clear
6:53 PM 48.9 °F - 43.0 °F 80% 30.41 in 10.0 mi Calm Calm - N/A   Clear
7:53 PM 48.9 °F - 44.1 °F 83% 30.40 in 10.0 mi Calm Calm - N/A   Clear
8:53 PM 48.0 °F - 44.1 °F 86% 30.40 in 5.0 mi Calm Calm - N/A   Clear
9:53 PM 46.9 °F - 44.1 °F 90% 30.40 in 10.0 mi South 3.5 mph - N/A   Clear
10:53 PM 46.9 °F - 44.1 °F 90% 30.39 in 10.0 mi Calm Calm - N/A   Clear
11:53 PM 46.9 °F - 43.0 °F 86% 30.39 in 10.0 mi Calm Calm - N/A   Clear